Flag for Netherlands Weather past 2 weeks in Leiden, Netherlands

Now
55 °F

Mostly cloudy.


Feels Like: 52 °F
Forecast: 53 / 61 °F
Wind: 14 mph from Southwest

Location: Rotterdam Zestienhoven Airport

Current Time: Oct 25, 2014 at 2:38:50 AM

Latest Report: Oct 25, 2014 at 1:55 AM


Visibility: 4 mi

Pressure: 29.98 "Hg

Humidity: 94%

Dew point: 54 °F

Location of LeidenLocation

Historic Weather in Leiden — Graph

°F

Leiden temperature yesterday

Maximum temperature yesterday: 55 °F (at 12:25 AM)
Minimum temperature yesterday: 54 °F (at 1:25 AM)
Average temperature yesterday: 54 °F

Past Weeks' High & Low Weather Summary

 TemperatureHumidityPressure
High73 °F (Oct 18, 3:55 PM)100% (Oct 11, 2:55 AM)30.18 "Hg (Oct 11, 2:55 AM)
Low46 °F (Oct 11, 4:25 AM)62% (Oct 22, 8:55 AM)29.45 "Hg (Oct 21, 1:25 PM)
Average57 °F85%29.86 "Hg
* Reported Oct 10 1:25 AM — Oct 25 1:25 AM, Leiden, Weather by CustomWeather, © 2014

Note: Actual official high and low records may vary slightly from our data, if they occured in-between our weather recording intervals... More about our weather records

Advertising

Leiden weather history for previous 24 hours

 ConditionsComfort  
Time TempWeatherWind HumidityBarometerVisibility
1:25 AM
Oct 25
55 °FMostly cloudy.13 mph94%29.98 "Hg4 mi
12:55 AM54 °FFog.12 mph100%29.98 "Hg3 mi
12:25 AM54 °FMostly cloudy.14 mph100%29.98 "Hg6 mi
11:55 PM
Oct 24
54 °FMostly cloudy.14 mph100%29.98 "HgN/A
11:25 PM54 °FLight rain. Partly cloudy.14 mph94%29.98 "HgN/A
10:55 PM54 °FSprinkles. Partly cloudy.13 mph94%29.98 "HgN/A
10:25 PM54 °FRain showers. Partly cloudy.13 mph100%29.95 "Hg5 mi
9:55 PM54 °FRain showers. Partly cloudy.13 mph100%29.98 "Hg3 mi
9:25 PM54 °FSprinkles. Partly cloudy.14 mph100%29.98 "Hg2 mi
8:55 PM54 °FLow clouds.14 mph100%29.98 "Hg4 mi
8:25 PM54 °FFog.13 mph100%29.98 "Hg2 mi
7:55 PM54 °FLight rain. Mostly cloudy.13 mph100%29.98 "Hg2 mi
7:25 PM54 °FLight rain. Mostly cloudy.13 mph100%29.98 "Hg2 mi
6:55 PM54 °FDrizzle. Broken clouds.12 mph100%29.98 "Hg2 mi
6:25 PM55 °FLight rain. Mostly cloudy.12 mph94%29.98 "Hg3 mi
5:55 PM55 °FDrizzle. Mostly cloudy.13 mph94%29.98 "Hg1 mi
5:25 PM55 °FDrizzle. Cloudy.12 mph94%29.98 "Hg3 mi
4:55 PM55 °FDrizzle. Cloudy.12 mph94%29.98 "Hg2 mi
4:25 PM55 °FDrizzle. Mostly cloudy.12 mph94%30.01 "Hg2 mi
3:55 PM54 °FDrizzle. Cloudy.12 mph100%30.01 "Hg2 mi
3:25 PM55 °FLight rain. Broken clouds.13 mph94%30.01 "Hg2 mi
2:55 PM54 °FDrizzle. Broken clouds.12 mph100%30.01 "Hg2 mi
2:25 PM54 °FDrizzle. Mostly cloudy.13 mph94%30.01 "Hg2 mi
1:55 PM54 °FCloudy.13 mph100%30.04 "Hg5 mi
1:25 PM54 °FDrizzle. Cloudy.13 mph100%30.04 "Hg2 mi
12:55 PM54 °FLight rain. Mostly cloudy.13 mph94%30.04 "Hg2 mi
12:25 PM54 °FLight rain. Mostly cloudy.12 mph94%30.04 "Hg2 mi
11:55 AM54 °FLight rain. Partly sunny.13 mph94%30.07 "Hg2 mi
11:25 AM54 °FDrizzle. Broken clouds.12 mph94%30.07 "Hg2 mi
10:55 AM54 °FLight rain. Broken clouds.14 mph94%30.07 "Hg2 mi
10:25 AM54 °FDrizzle. Broken clouds.14 mph94%30.07 "Hg5 mi
9:55 AM54 °FDrizzle. Mostly cloudy.13 mph88%30.07 "HgN/A
9:25 AM54 °FSprinkles. More clouds than sun.13 mph88%30.07 "Hg5 mi
8:55 AM54 °FLight rain. Overcast.14 mph88%30.07 "HgN/A
8:25 AM54 °FMostly cloudy.12 mph82%30.04 "HgN/A
7:55 AM54 °FMostly cloudy.15 mph82%30.04 "Hg4 mi
7:25 AM54 °FMostly cloudy.13 mph82%30.07 "HgN/A
6:55 AM54 °FMostly cloudy.13 mph82%30.07 "HgN/A
6:25 AM54 °FMostly cloudy.14 mph77%30.07 "HgN/A
5:55 AM54 °FOvercast.14 mph77%30.07 "HgN/A
5:25 AM54 °FMostly cloudy.12 mph77%30.07 "HgN/A
4:55 AM54 °FPartly cloudy.13 mph77%30.07 "HgN/A
4:25 AM54 °FPartly cloudy.14 mph77%30.07 "HgN/A
3:55 AM54 °FLight rain. Passing clouds.14 mph77%30.09 "Hg6 mi
3:25 AM54 °FMostly cloudy.14 mph77%30.09 "HgN/A
2:55 AM54 °FOvercast.16 mph77%30.09 "HgN/A
2:25 AM54 °FMostly cloudy.14 mph77%30.09 "HgN/A
Weather by CustomWeather, © 2014

See weather overviewHow to use our weather pages